Location: Ceske Budejovice
(48.9830°N, 14.4670°E)
Time: 14:38:25
(UTC+01:00)

ISS - Pass Details

Date: 28 November 2019
Orbit: 411 x 421 km, 51.6° (Epoch: 09 December)

Event Time Altitude Azimuth Distance (km) Brightness Sun altitude
Rises 16:48:07 0° 233° (SW) 2,344 2.1 -6.4°
Reaches altitude 10° 16:50:14 10° 228° (SW) 1,486 0.5 -6.7°
Maximum altitude 16:53:29 52° 152° (SSE) 528 -3.3 -7.2°
Drops below altitude 10° 16:56:46 10° 75° (ENE) 1,500 -1.6 -7.7°
Enters shadow 16:56:46 10° 75° (ENE) 1,502 -1.6 -7.7°
